GEFSSE_prec_meanprecacc_144.txt.gz
Total_Precipitation_Accumulation
0.05 0.06 0.16 0.17 0.16 0.15 0.16 0.16 0.14 0.13 0.15 0.16 0.18 0.21 0.19 0.20 0.20 0.22 0.24 0.28 0.30 0.26 0.27 0.30 0.28 0.27 0.26 0.25 0.24 0.23 0.18 0.16 0.14 0.15 0.20 0.26 0.25 0.19 0.17 0.17 0.13 0.20 0.27
0.04 0.05 0.11 0.11 0.11 0.12 0.12 0.13 0.11 0.10 0.11 0.12 0.12 0.14 0.15 0.17 0.18 0.19 0.23 0.28 0.32 0.27 0.26 0.28 0.30 0.31 0.30 0.29 0.29 0.27 0.19 0.13 0.10 0.10 0.11 0.15 0.21 0.20 0.17 0.18 0.19 0.31 0.34
0.02 0.04 0.06 0.08 0.09 0.09 0.11 0.11 0.10 0.09 0.09 0.09 0.08 0.09 0.11 0.14 0.17 0.19 0.22 0.23 0.26 0.29 0.28 0.28 0.37 0.39 0.36 0.35 0.34 0.30 0.24 0.13 0.08 0.08 0.08 0.15 0.23 0.26 0.23 0.21 0.20 0.24 0.28
0.01 0.02 0.03 0.07 0.09 0.09 0.10 0.10 0.09 0.09 0.08 0.08 0.07 0.07 0.10 0.12 0.14 0.17 0.22 0.25 0.28 0.37 0.40 0.43 0.49 0.47 0.42 0.37 0.34 0.30 0.28 0.18 0.09 0.07 0.05 0.15 0.30 0.34 0.29 0.25 0.20 0.21 0.25
0.00 0.01 0.02 0.06 0.08 0.09 0.09 0.10 0.10 0.09 0.08 0.09 0.08 0.07 0.09 0.11 0.13 0.15 0.18 0.23 0.30 0.41 0.42 0.41 0.45 0.43 0.40 0.37 0.33 0.34 0.38 0.28 0.13 0.05 0.04 0.11 0.25 0.39 0.34 0.31 0.26 0.21 0.22
0.00 0.00 0.02 0.06 0.08 0.09 0.10 0.11 0.12 0.10 0.09 0.10 0.09 0.08 0.09 0.09 0.10 0.12 0.14 0.16 0.21 0.28 0.30 0.34 0.38 0.39 0.37 0.34 0.29 0.33 0.42 0.37 0.15 0.04 0.05 0.08 0.20 0.36 0.35 0.32 0.29 0.23 0.20
0.00 0.00 0.01 0.05 0.08 0.10 0.11 0.12 0.13 0.11 0.10 0.09 0.10 0.11 0.10 0.09 0.09 0.11 0.10 0.10 0.11 0.14 0.18 0.27 0.36 0.41 0.40 0.34 0.30 0.34 0.43 0.35 0.13 0.10 0.12 0.12 0.18 0.25 0.37 0.37 0.31 0.28 0.24
0.00 0.00 0.01 0.05 0.08 0.10 0.12 0.13 0.16 0.14 0.12 0.11 0.12 0.14 0.13 0.12 0.13 0.15 0.12 0.10 0.10 0.10 0.13 0.18 0.30 0.48 0.47 0.35 0.33 0.39 0.39 0.21 0.08 0.08 0.11 0.15 0.18 0.29 0.59 0.65 0.45 0.34 0.31
0.00 0.00 0.02 0.04 0.07 0.10 0.12 0.14 0.17 0.16 0.14 0.14 0.15 0.15 0.14 0.13 0.13 0.16 0.15 0.13 0.14 0.13 0.13 0.14 0.23 0.43 0.46 0.38 0.39 0.44 0.31 0.12 0.04 0.11 0.10 0.19 0.17 0.38 0.72 0.80 0.66 0.47 0.36
0.00 0.00 0.02 0.04 0.06 0.07 0.09 0.13 0.16 0.16 0.15 0.15 0.15 0.13 0.11 0.11 0.11 0.12 0.10 0.09 0.12 0.15 0.15 0.13 0.15 0.28 0.35 0.35 0.44 0.40 0.18 0.06 0.02 0.07 0.17 0.17 0.15 0.40 0.79 0.88 0.81 0.65 0.51
0.01 0.01 0.02 0.05 0.06 0.06 0.07 0.09 0.12 0.13 0.12 0.13 0.12 0.11 0.11 0.10 0.09 0.08 0.07 0.06 0.09 0.13 0.15 0.17 0.17 0.22 0.27 0.26 0.32 0.26 0.09 0.04 0.04 0.08 0.16 0.15 0.17 0.38 0.75 0.92 0.87 0.79 0.69
0.01 0.01 0.02 0.05 0.07 0.06 0.05 0.06 0.08 0.08 0.09 0.08 0.09 0.09 0.11 0.12 0.11 0.10 0.08 0.07 0.10 0.11 0.14 0.19 0.21 0.21 0.20 0.19 0.31 0.26 0.12 0.09 0.09 0.06 0.09 0.08 0.19 0.39 0.63 0.83 0.93 0.87 0.81
0.00 0.01 0.02 0.04 0.06 0.05 0.04 0.05 0.06 0.07 0.09 0.10 0.10 0.12 0.16 0.18 0.17 0.13 0.11 0.10 0.10 0.10 0.12 0.17 0.21 0.20 0.25 0.39 0.53 0.42 0.28 0.22 0.13 0.07 0.04 0.05 0.14 0.29 0.48 0.66 0.86 0.97 0.97
0.00 0.01 0.02 0.04 0.05 0.05 0.04 0.04 0.04 0.04 0.05 0.07 0.09 0.10 0.12 0.14 0.13 0.11 0.08 0.07 0.08 0.09 0.11 0.15 0.17 0.21 0.24 0.31 0.36 0.33 0.27 0.24 0.17 0.12 0.07 0.06 0.09 0.15 0.28 0.44 0.65 0.91 1.01
0.00 0.01 0.02 0.03 0.04 0.04 0.04 0.04 0.03 0.03 0.03 0.03 0.04 0.04 0.05 0.07 0.07 0.07 0.05 0.04 0.03 0.05 0.07 0.08 0.10 0.12 0.16 0.20 0.20 0.21 0.22 0.21 0.17 0.16 0.14 0.10 0.09 0.11 0.17 0.29 0.42 0.67 0.93
0.00 0.00 0.01 0.02 0.02 0.03 0.03 0.03 0.03 0.02 0.02 0.02 0.02 0.03 0.02 0.03 0.03 0.03 0.02 0.02 0.01 0.02 0.04 0.06 0.06 0.07 0.10 0.14 0.14 0.14 0.15 0.14 0.13 0.14 0.15 0.15 0.12 0.11 0.16 0.23 0.32 0.43 0.69
0.00 0.00 0.01 0.01 0.02 0.03 0.03 0.03 0.03 0.02 0.02 0.02 0.02 0.01 0.01 0.01 0.01 0.01 0.01 0.01 0.01 0.02 0.05 0.10 0.14 0.15 0.15 0.17 0.16 0.18 0.17 0.16 0.15 0.17 0.18 0.18 0.18 0.16 0.17 0.27 0.32 0.36 0.49
0.00 0.00 0.00 0.01 0.01 0.02 0.03 0.03 0.03 0.02 0.02 0.02 0.01 0.01 0.01 0.02 0.02 0.02 0.02 0.02 0.01 0.02 0.05 0.11 0.17 0.20 0.20 0.22 0.22 0.25 0.26 0.26 0.21 0.22 0.24 0.21 0.21 0.20 0.19 0.23 0.32 0.37 0.47
0.00 0.00 0.00 0.00 0.00 0.01 0.02 0.02 0.02 0.02 0.02 0.01 0.01 0.01 0.01 0.01 0.03 0.04 0.04 0.04 0.03 0.03 0.06 0.10 0.13 0.18 0.20 0.24 0.26 0.28 0.33 0.35 0.32 0.28 0.25 0.23 0.23 0.21 0.22 0.24 0.28 0.32 0.42
0.00 0.00 0.00 0.00 0.00 0.01 0.01 0.02 0.02 0.02 0.01 0.01 0.01 0.01 0.01 0.01 0.01 0.02 0.03 0.04 0.05 0.07 0.09 0.11 0.14 0.16 0.19 0.25 0.29 0.29 0.34 0.36 0.35 0.32 0.29 0.30 0.30 0.24 0.23 0.24 0.26 0.27 0.30
0.00 0.00 0.00 0.00 0.00 0.00 0.01 0.01 0.01 0.01 0.01 0.01 0.01 0.01 0.01 0.01 0.01 0.01 0.01 0.02 0.03 0.05 0.08 0.11 0.12 0.13 0.13 0.17 0.22 0.20 0.20 0.23 0.27 0.26 0.25 0.28 0.32 0.35 0.34 0.31 0.29 0.28 0.29
0.00 0.00 0.00 0.00 0.00 0.00 0.00 0.01 0.01 0.01 0.01 0.01 0.01 0.01 0.01 0.01 0.01 0.01 0.01 0.02 0.02 0.02 0.02 0.02 0.04 0.06 0.06 0.08 0.16 0.20 0.17 0.15 0.16 0.17 0.18 0.22 0.28 0.35 0.39 0.40 0.39 0.36 0.33
0.00 0.00 0.00 0.00 0.00 0.00 0.00 0.00 0.00 0.00 0.01 0.01 0.01 0.01 0.01 0.00 0.01 0.01 0.01 0.01 0.01 0.01 0.01 0.01 0.02 0.03 0.04 0.04 0.08 0.24 0.33 0.24 0.16 0.12 0.14 0.16 0.19 0.21 0.24 0.29 0.34 0.38 0.38
0.00 0.00 0.00 0.00 0.00 0.00 0.00 0.00 0.01 0.01 0.01 0.01 0.01 0.00 0.00 0.00 0.00 0.00 0.01 0.01 0.01 0.01 0.01 0.02 0.02 0.03 0.05 0.06 0.06 0.11 0.21 0.26 0.32 0.21 0.07 0.06 0.08 0.10 0.12 0.15 0.19 0.24 0.29
0.00 0.00 0.00 0.00 0.00 0.00 0.00 0.00 0.00 0.01 0.00 0.00 0.00 0.00 0.00 0.00 0.00 0.01 0.01 0.01 0.01 0.01 0.02 0.02 0.02 0.03 0.05 0.08 0.10 0.11 0.10 0.12 0.21 0.35 0.17 0.03 0.03 0.05 0.08 0.10 0.14 0.18 0.23
0.00 0.00 0.00 0.00 0.00 0.00 0.00 0.00 0.00 0.00 0.00 0.00 0.00 0.00 0.00 0.00 0.00 0.01 0.01 0.01 0.02 0.02 0.02 0.03 0.04 0.05 0.06 0.08 0.11 0.13 0.18 0.22 0.21 0.29 0.27 0.11 0.06 0.03 0.05 0.07 0.10 0.15 0.22

GEFSSE_prec_meanprecacc_150.txt.gz
Total_Precipitation_Accumulation
0.05 0.06 0.18 0.19 0.18 0.17 0.18 0.18 0.16 0.14 0.15 0.16 0.19 0.21 0.20 0.21 0.21 0.22 0.24 0.29 0.31 0.26 0.27 0.31 0.29 0.27 0.26 0.26 0.25 0.23 0.19 0.16 0.15 0.16 0.20 0.26 0.25 0.20 0.18 0.17 0.13 0.20 0.27
0.04 0.05 0.12 0.12 0.13 0.14 0.16 0.15 0.12 0.11 0.12 0.12 0.12 0.14 0.15 0.17 0.19 0.20 0.24 0.29 0.33 0.27 0.26 0.28 0.30 0.32 0.30 0.29 0.29 0.27 0.20 0.13 0.11 0.10 0.11 0.15 0.21 0.20 0.17 0.18 0.19 0.31 0.34
0.02 0.04 0.07 0.09 0.11 0.12 0.13 0.13 0.10 0.09 0.09 0.09 0.08 0.09 0.11 0.14 0.17 0.19 0.22 0.23 0.26 0.30 0.29 0.28 0.37 0.39 0.37 0.36 0.34 0.31 0.24 0.13 0.08 0.08 0.08 0.15 0.23 0.26 0.23 0.21 0.20 0.24 0.28
0.01 0.02 0.03 0.08 0.10 0.11 0.12 0.12 0.10 0.09 0.09 0.08 0.07 0.08 0.10 0.12 0.14 0.18 0.23 0.25 0.28 0.37 0.40 0.43 0.49 0.47 0.42 0.37 0.34 0.30 0.28 0.18 0.09 0.07 0.05 0.15 0.30 0.34 0.29 0.25 0.20 0.21 0.25
0.00 0.01 0.03 0.07 0.10 0.10 0.11 0.12 0.12 0.10 0.09 0.09 0.08 0.07 0.09 0.11 0.13 0.15 0.19 0.24 0.30 0.41 0.42 0.41 0.45 0.43 0.40 0.37 0.33 0.34 0.38 0.28 0.13 0.05 0.04 0.11 0.25 0.39 0.34 0.31 0.26 0.21 0.22
0.00 0.00 0.02 0.06 0.09 0.10 0.11 0.13 0.14 0.11 0.10 0.10 0.09 0.08 0.09 0.09 0.10 0.12 0.14 0.16 0.21 0.28 0.30 0.34 0.38 0.39 0.37 0.34 0.29 0.33 0.42 0.37 0.15 0.04 0.05 0.08 0.20 0.36 0.35 0.33 0.29 0.24 0.20
0.00 0.00 0.01 0.06 0.09 0.11 0.12 0.13 0.15 0.12 0.10 0.09 0.10 0.11 0.11 0.09 0.09 0.11 0.10 0.10 0.11 0.14 0.19 0.27 0.36 0.41 0.40 0.34 0.30 0.35 0.43 0.35 0.13 0.10 0.12 0.12 0.18 0.25 0.37 0.37 0.32 0.28 0.25
0.00 0.00 0.01 0.06 0.09 0.11 0.12 0.14 0.18 0.15 0.12 0.11 0.12 0.14 0.13 0.12 0.13 0.15 0.12 0.10 0.10 0.10 0.13 0.19 0.30 0.48 0.48 0.35 0.33 0.40 0.39 0.21 0.08 0.08 0.11 0.15 0.18 0.30 0.59 0.65 0.46 0.34 0.31
0.00 0.00 0.02 0.05 0.07 0.10 0.12 0.15 0.19 0.17 0.15 0.14 0.15 0.16 0.14 0.13 0.13 0.16 0.15 0.13 0.14 0.13 0.13 0.14 0.23 0.43 0.46 0.38 0.39 0.44 0.31 0.12 0.04 0.11 0.10 0.19 0.17 0.38 0.72 0.80 0.67 0.47 0.37
0.00 0.01 0.02 0.04 0.06 0.07 0.09 0.14 0.17 0.17 0.16 0.16 0.15 0.13 0.11 0.11 0.12 0.12 0.11 0.09 0.12 0.15 0.15 0.13 0.16 0.28 0.35 0.35 0.44 0.40 0.18 0.06 0.02 0.07 0.17 0.17 0.15 0.40 0.79 0.89 0.81 0.66 0.51
0.01 0.01 0.02 0.05 0.07 0.07 0.07 0.10 0.13 0.13 0.13 0.13 0.13 0.11 0.11 0.10 0.09 0.08 0.07 0.06 0.09 0.13 0.15 0.17 0.17 0.22 0.27 0.26 0.32 0.26 0.09 0.04 0.04 0.08 0.16 0.15 0.17 0.38 0.75 0.92 0.87 0.79 0.70
0.01 0.01 0.02 0.05 0.07 0.06 0.05 0.06 0.08 0.09 0.09 0.09 0.09 0.09 0.11 0.12 0.11 0.10 0.08 0.07 0.10 0.11 0.14 0.19 0.21 0.21 0.20 0.19 0.31 0.26 0.12 0.09 0.09 0.06 0.09 0.08 0.19 0.39 0.63 0.83 0.93 0.87 0.82
0.00 0.01 0.02 0.05 0.06 0.05 0.04 0.05 0.06 0.07 0.09 0.10 0.10 0.12 0.16 0.18 0.17 0.13 0.11 0.10 0.10 0.10 0.12 0.17 0.21 0.20 0.25 0.39 0.53 0.42 0.28 0.22 0.13 0.07 0.04 0.05 0.14 0.29 0.48 0.66 0.86 0.97 0.97
0.00 0.01 0.02 0.04 0.05 0.05 0.04 0.04 0.04 0.04 0.05 0.07 0.10 0.11 0.12 0.14 0.13 0.11 0.08 0.07 0.08 0.09 0.11 0.15 0.17 0.21 0.24 0.31 0.36 0.33 0.27 0.24 0.17 0.12 0.07 0.06 0.09 0.15 0.28 0.44 0.65 0.91 1.01
0.00 0.01 0.02 0.03 0.04 0.04 0.05 0.04 0.03 0.03 0.03 0.03 0.04 0.04 0.05 0.07 0.07 0.07 0.05 0.04 0.03 0.05 0.07 0.08 0.10 0.12 0.16 0.20 0.20 0.21 0.22 0.21 0.17 0.16 0.14 0.10 0.09 0.11 0.17 0.29 0.42 0.67 0.93
0.00 0.00 0.01 0.02 0.02 0.04 0.04 0.04 0.03 0.02 0.02 0.02 0.03 0.03 0.02 0.03 0.03 0.03 0.02 0.02 0.01 0.02 0.04 0.06 0.06 0.07 0.10 0.14 0.14 0.14 0.15 0.14 0.13 0.14 0.15 0.15 0.12 0.11 0.16 0.23 0.32 0.43 0.69
0.00 0.00 0.01 0.01 0.02 0.03 0.03 0.03 0.03 0.02 0.02 0.02 0.02 0.02 0.01 0.01 0.01 0.01 0.02 0.01 0.01 0.02 0.05 0.10 0.14 0.15 0.15 0.17 0.16 0.18 0.17 0.16 0.15 0.17 0.18 0.18 0.18 0.16 0.17 0.27 0.32 0.36 0.49
0.00 0.00 0.00 0.01 0.01 0.02 0.03 0.03 0.03 0.03 0.02 0.02 0.02 0.01 0.01 0.02 0.02 0.02 0.02 0.02 0.01 0.02 0.05 0.11 0.17 0.20 0.20 0.22 0.22 0.25 0.26 0.26 0.21 0.22 0.24 0.21 0.21 0.20 0.19 0.23 0.32 0.37 0.47
0.00 0.00 0.00 0.00 0.00 0.01 0.02 0.02 0.02 0.03 0.02 0.02 0.02 0.01 0.01 0.01 0.03 0.04 0.04 0.04 0.03 0.03 0.06 0.10 0.13 0.18 0.20 0.24 0.26 0.28 0.33 0.35 0.32 0.28 0.25 0.23 0.23 0.21 0.22 0.24 0.28 0.32 0.42
0.00 0.00 0.00 0.00 0.00 0.01 0.01 0.02 0.02 0.02 0.02 0.01 0.01 0.01 0.01 0.01 0.01 0.02 0.03 0.04 0.05 0.07 0.09 0.11 0.14 0.16 0.19 0.25 0.29 0.29 0.34 0.36 0.35 0.32 0.29 0.30 0.30 0.24 0.23 0.24 0.26 0.27 0.30
0.00 0.00 0.00 0.00 0.00 0.00 0.01 0.02 0.02 0.01 0.01 0.01 0.01 0.01 0.01 0.01 0.01 0.01 0.01 0.02 0.03 0.05 0.08 0.11 0.12 0.13 0.13 0.17 0.22 0.20 0.20 0.23 0.27 0.26 0.25 0.28 0.32 0.35 0.34 0.31 0.29 0.28 0.29
0.00 0.00 0.00 0.00 0.00 0.00 0.00 0.01 0.01 0.01 0.01 0.01 0.01 0.01 0.01 0.01 0.01 0.01 0.01 0.02 0.02 0.02 0.02 0.03 0.04 0.06 0.06 0.08 0.16 0.20 0.17 0.15 0.16 0.17 0.18 0.22 0.28 0.35 0.39 0.40 0.39 0.36 0.33
0.00 0.00 0.00 0.00 0.00 0.00 0.00 0.00 0.00 0.01 0.01 0.01 0.01 0.01 0.01 0.01 0.01 0.01 0.01 0.01 0.01 0.01 0.02 0.02 0.02 0.04 0.04 0.04 0.09 0.24 0.33 0.24 0.16 0.12 0.14 0.16 0.19 0.21 0.24 0.29 0.34 0.38 0.38
0.00 0.00 0.00 0.00 0.00 0.00 0.00 0.00 0.01 0.01 0.01 0.01 0.01 0.01 0.01 0.01 0.01 0.01 0.01 0.01 0.01 0.01 0.02 0.02 0.02 0.03 0.05 0.06 0.06 0.11 0.21 0.26 0.33 0.21 0.07 0.06 0.08 0.10 0.12 0.15 0.19 0.24 0.29
0.00 0.00 0.00 0.00 0.00 0.00 0.00 0.00 0.00 0.01 0.01 0.00 0.00 0.00 0.00 0.00 0.01 0.01 0.01 0.02 0.02 0.02 0.02 0.03 0.03 0.04 0.06 0.08 0.11 0.11 0.10 0.12 0.21 0.35 0.17 0.03 0.03 0.05 0.08 0.10 0.14 0.18 0.23
0.00 0.00 0.00 0.00 0.00 0.00 0.00 0.00 0.00 0.00 0.00 0.00 0.00 0.00 0.00 0.00 0.01 0.01 0.02 0.02 0.03 0.03 0.03 0.04 0.06 0.06 0.07 0.09 0.11 0.13 0.18 0.23 0.21 0.29 0.27 0.11 0.06 0.03 0.05 0.07 0.10 0.15 0.22

GEFSSE_prec_meanprecacc_156.txt.gz
Total_Precipitation_Accumulation
0.05 0.06 0.19 0.20 0.20 0.20 0.21 0.20 0.17 0.15 0.16 0.17 0.20 0.22 0.21 0.21 0.21 0.23 0.25 0.29 0.31 0.26 0.28 0.31 0.29 0.27 0.27 0.26 0.25 0.23 0.19 0.16 0.15 0.16 0.20 0.27 0.26 0.20 0.18 0.17 0.13 0.21 0.28
0.04 0.05 0.13 0.13 0.15 0.17 0.18 0.16 0.13 0.11 0.12 0.13 0.13 0.14 0.16 0.18 0.19 0.20 0.24 0.29 0.33 0.28 0.27 0.29 0.31 0.32 0.30 0.30 0.30 0.28 0.20 0.13 0.11 0.10 0.11 0.15 0.21 0.20 0.17 0.18 0.19 0.31 0.34
0.02 0.04 0.08 0.10 0.12 0.14 0.16 0.14 0.11 0.10 0.09 0.09 0.08 0.10 0.12 0.14 0.17 0.19 0.22 0.24 0.27 0.30 0.29 0.28 0.37 0.40 0.37 0.36 0.34 0.31 0.24 0.13 0.08 0.08 0.08 0.15 0.23 0.27 0.23 0.21 0.20 0.24 0.28
0.01 0.02 0.03 0.09 0.12 0.14 0.15 0.13 0.11 0.10 0.09 0.08 0.08 0.08 0.10 0.13 0.15 0.18 0.23 0.25 0.28 0.38 0.40 0.43 0.50 0.47 0.42 0.38 0.34 0.30 0.28 0.18 0.09 0.07 0.05 0.15 0.30 0.35 0.30 0.25 0.20 0.21 0.25
0.00 0.01 0.03 0.08 0.12 0.13 0.13 0.13 0.13 0.11 0.09 0.09 0.08 0.08 0.09 0.11 0.13 0.16 0.19 0.24 0.30 0.41 0.42 0.41 0.45 0.43 0.40 0.37 0.33 0.34 0.38 0.28 0.13 0.05 0.04 0.11 0.25 0.39 0.34 0.31 0.26 0.21 0.22
0.00 0.01 0.02 0.07 0.12 0.12 0.13 0.15 0.16 0.13 0.10 0.10 0.09 0.09 0.09 0.09 0.10 0.12 0.14 0.16 0.21 0.28 0.30 0.34 0.38 0.39 0.37 0.34 0.30 0.33 0.42 0.37 0.15 0.04 0.05 0.08 0.20 0.37 0.35 0.33 0.29 0.24 0.21
0.00 0.00 0.02 0.07 0.11 0.13 0.13 0.15 0.17 0.13 0.10 0.09 0.10 0.11 0.11 0.09 0.10 0.11 0.10 0.10 0.11 0.14 0.19 0.27 0.36 0.41 0.41 0.34 0.30 0.35 0.43 0.35 0.13 0.10 0.12 0.12 0.18 0.25 0.37 0.37 0.32 0.29 0.25
0.00 0.01 0.02 0.07 0.12 0.13 0.14 0.15 0.20 0.16 0.13 0.11 0.13 0.14 0.13 0.12 0.13 0.15 0.12 0.10 0.10 0.10 0.13 0.19 0.30 0.48 0.48 0.35 0.33 0.40 0.39 0.21 0.08 0.08 0.11 0.15 0.18 0.30 0.59 0.65 0.46 0.34 0.31
0.00 0.00 0.02 0.06 0.09 0.11 0.13 0.16 0.21 0.18 0.16 0.15 0.16 0.16 0.15 0.13 0.14 0.16 0.15 0.13 0.14 0.14 0.13 0.14 0.23 0.43 0.46 0.38 0.39 0.44 0.31 0.12 0.04 0.11 0.10 0.19 0.17 0.38 0.72 0.80 0.67 0.47 0.37
0.00 0.01 0.02 0.05 0.07 0.08 0.10 0.14 0.18 0.17 0.17 0.16 0.16 0.13 0.11 0.11 0.12 0.12 0.11 0.10 0.12 0.15 0.15 0.13 0.16 0.28 0.35 0.35 0.44 0.40 0.18 0.06 0.02 0.07 0.17 0.17 0.15 0.40 0.79 0.89 0.81 0.66 0.51
0.01 0.01 0.03 0.06 0.07 0.07 0.08 0.10 0.14 0.14 0.13 0.14 0.13 0.11 0.11 0.10 0.09 0.09 0.07 0.06 0.09 0.13 0.15 0.17 0.18 0.22 0.27 0.26 0.32 0.26 0.09 0.04 0.04 0.08 0.16 0.15 0.17 0.38 0.75 0.92 0.87 0.79 0.70
0.01 0.01 0.03 0.05 0.07 0.06 0.05 0.06 0.09 0.09 0.09 0.09 0.09 0.09 0.11 0.12 0.11 0.10 0.08 0.07 0.10 0.11 0.14 0.19 0.21 0.21 0.20 0.19 0.31 0.26 0.12 0.09 0.09 0.06 0.09 0.08 0.19 0.39 0.63 0.83 0.93 0.87 0.82
0.00 0.01 0.02 0.05 0.07 0.06 0.05 0.05 0.07 0.07 0.09 0.10 0.11 0.12 0.16 0.18 0.17 0.13 0.11 0.10 0.10 0.10 0.13 0.17 0.21 0.20 0.25 0.39 0.53 0.42 0.28 0.22 0.13 0.07 0.04 0.05 0.14 0.29 0.48 0.66 0.86 0.98 0.97
0.00 0.01 0.02 0.04 0.05 0.05 0.04 0.04 0.05 0.05 0.05 0.07 0.10 0.11 0.13 0.14 0.13 0.11 0.08 0.07 0.08 0.09 0.11 0.15 0.17 0.21 0.24 0.31 0.36 0.33 0.27 0.24 0.17 0.12 0.07 0.06 0.09 0.15 0.28 0.44 0.65 0.91 1.01
0.00 0.01 0.02 0.03 0.04 0.05 0.05 0.04 0.03 0.03 0.03 0.03 0.04 0.04 0.05 0.07 0.07 0.07 0.05 0.04 0.03 0.05 0.07 0.08 0.10 0.12 0.16 0.20 0.20 0.21 0.22 0.21 0.17 0.16 0.14 0.10 0.09 0.11 0.17 0.29 0.42 0.67 0.93
0.00 0.00 0.01 0.02 0.03 0.04 0.04 0.04 0.03 0.03 0.03 0.02 0.03 0.03 0.02 0.03 0.03 0.03 0.02 0.02 0.01 0.02 0.04 0.06 0.06 0.07 0.10 0.14 0.14 0.14 0.15 0.14 0.13 0.14 0.15 0.15 0.12 0.11 0.16 0.23 0.32 0.43 0.69
0.00 0.00 0.01 0.01 0.02 0.03 0.04 0.03 0.03 0.03 0.02 0.02 0.02 0.02 0.01 0.01 0.01 0.01 0.02 0.01 0.01 0.02 0.05 0.10 0.14 0.15 0.15 0.17 0.16 0.18 0.17 0.16 0.15 0.17 0.18 0.18 0.18 0.16 0.17 0.27 0.32 0.36 0.49
0.00 0.00 0.00 0.01 0.01 0.02 0.03 0.03 0.03 0.03 0.03 0.03 0.02 0.02 0.01 0.02 0.02 0.03 0.02 0.02 0.01 0.02 0.05 0.11 0.17 0.20 0.20 0.22 0.22 0.25 0.26 0.26 0.21 0.22 0.24 0.21 0.21 0.20 0.19 0.23 0.32 0.37 0.47
0.00 0.00 0.00 0.00 0.00 0.01 0.02 0.03 0.03 0.03 0.03 0.03 0.02 0.02 0.01 0.02 0.03 0.04 0.04 0.04 0.03 0.04 0.06 0.10 0.13 0.18 0.20 0.24 0.26 0.28 0.33 0.35 0.32 0.28 0.25 0.23 0.23 0.21 0.22 0.24 0.28 0.32 0.42
0.00 0.00 0.00 0.00 0.00 0.01 0.02 0.02 0.02 0.02 0.02 0.02 0.02 0.02 0.02 0.02 0.02 0.02 0.03 0.04 0.05 0.08 0.09 0.11 0.14 0.16 0.19 0.25 0.29 0.29 0.34 0.36 0.35 0.32 0.29 0.30 0.30 0.24 0.23 0.24 0.26 0.27 0.30
0.00 0.00 0.00 0.00 0.00 0.01 0.01 0.02 0.02 0.02 0.01 0.02 0.01 0.01 0.02 0.02 0.01 0.01 0.01 0.02 0.04 0.06 0.09 0.11 0.13 0.13 0.13 0.17 0.22 0.20 0.20 0.23 0.27 0.26 0.25 0.28 0.32 0.35 0.34 0.31 0.29 0.28 0.29
0.00 0.00 0.00 0.00 0.00 0.00 0.00 0.01 0.01 0.01 0.01 0.01 0.01 0.02 0.02 0.02 0.02 0.02 0.02 0.02 0.02 0.02 0.02 0.03 0.04 0.06 0.06 0.08 0.16 0.21 0.17 0.15 0.16 0.17 0.18 0.22 0.28 0.35 0.39 0.40 0.39 0.36 0.33
0.00 0.00 0.00 0.00 0.00 0.00 0.00 0.00 0.01 0.01 0.01 0.01 0.01 0.02 0.02 0.01 0.01 0.01 0.01 0.02 0.02 0.02 0.02 0.02 0.02 0.04 0.05 0.04 0.09 0.24 0.33 0.24 0.16 0.12 0.14 0.16 0.19 0.21 0.24 0.29 0.34 0.38 0.38
0.00 0.00 0.00 0.00 0.00 0.00 0.00 0.00 0.01 0.01 0.01 0.01 0.01 0.01 0.01 0.01 0.01 0.01 0.01 0.02 0.02 0.02 0.02 0.03 0.03 0.04 0.06 0.07 0.06 0.11 0.22 0.27 0.33 0.21 0.07 0.06 0.08 0.10 0.12 0.15 0.19 0.24 0.29
0.00 0.00 0.00 0.00 0.00 0.00 0.00 0.00 0.01 0.01 0.01 0.00 0.00 0.00 0.00 0.01 0.01 0.01 0.02 0.02 0.02 0.03 0.03 0.03 0.04 0.05 0.06 0.09 0.11 0.12 0.11 0.12 0.21 0.35 0.17 0.03 0.03 0.05 0.08 0.11 0.14 0.18 0.23
0.00 0.00 0.00 0.00 0.00 0.00 0.00 0.00 0.00 0.00 0.00 0.00 0.00 0.01 0.01 0.01 0.01 0.01 0.02 0.03 0.03 0.04 0.04 0.05 0.06 0.07 0.08 0.10 0.12 0.14 0.19 0.23 0.22 0.30 0.27 0.11 0.06 0.04 0.06 0.08 0.11 0.15 0.22

GEFSSE_prec_meanprecacc_162.txt.gz
Total_Precipitation_Accumulation
0.05 0.06 0.19 0.21 0.21 0.22 0.22 0.21 0.17 0.15 0.17 0.18 0.20 0.23 0.21 0.21 0.21 0.23 0.25 0.29 0.31 0.27 0.28 0.32 0.29 0.28 0.27 0.26 0.25 0.23 0.19 0.16 0.15 0.17 0.21 0.27 0.26 0.21 0.18 0.17 0.13 0.21 0.29
0.04 0.06 0.13 0.14 0.16 0.19 0.20 0.17 0.14 0.12 0.13 0.13 0.13 0.15 0.16 0.18 0.19 0.20 0.24 0.29 0.33 0.28 0.27 0.29 0.31 0.32 0.30 0.30 0.30 0.28 0.20 0.13 0.11 0.10 0.11 0.16 0.21 0.21 0.18 0.18 0.19 0.32 0.35
0.02 0.04 0.08 0.11 0.13 0.16 0.17 0.15 0.12 0.10 0.09 0.10 0.09 0.10 0.12 0.15 0.18 0.19 0.23 0.24 0.27 0.30 0.29 0.28 0.38 0.40 0.37 0.36 0.34 0.31 0.24 0.13 0.08 0.08 0.08 0.15 0.23 0.27 0.23 0.21 0.20 0.24 0.29
0.01 0.02 0.04 0.09 0.13 0.15 0.16 0.14 0.11 0.10 0.09 0.08 0.08 0.08 0.10 0.13 0.15 0.18 0.23 0.25 0.29 0.38 0.40 0.43 0.50 0.47 0.42 0.38 0.34 0.30 0.28 0.18 0.09 0.07 0.05 0.15 0.30 0.35 0.30 0.26 0.21 0.22 0.25
0.00 0.01 0.03 0.08 0.13 0.15 0.15 0.15 0.13 0.11 0.09 0.09 0.08 0.08 0.09 0.11 0.13 0.16 0.19 0.24 0.30 0.41 0.43 0.41 0.45 0.44 0.40 0.37 0.33 0.34 0.38 0.28 0.13 0.05 0.04 0.11 0.25 0.40 0.34 0.32 0.26 0.22 0.22
0.00 0.01 0.02 0.08 0.13 0.14 0.16 0.19 0.18 0.13 0.10 0.10 0.09 0.09 0.09 0.10 0.10 0.12 0.14 0.16 0.21 0.28 0.30 0.35 0.38 0.39 0.37 0.34 0.30 0.33 0.42 0.37 0.15 0.04 0.05 0.08 0.20 0.37 0.35 0.33 0.30 0.24 0.21
0.00 0.01 0.02 0.08 0.13 0.14 0.15 0.18 0.20 0.14 0.11 0.09 0.10 0.12 0.11 0.09 0.10 0.11 0.10 0.10 0.11 0.15 0.19 0.27 0.36 0.41 0.41 0.34 0.30 0.35 0.43 0.35 0.13 0.10 0.12 0.12 0.18 0.26 0.37 0.38 0.32 0.29 0.26
0.00 0.01 0.02 0.08 0.13 0.14 0.14 0.17 0.22 0.17 0.13 0.12 0.13 0.15 0.14 0.13 0.13 0.15 0.12 0.10 0.10 0.10 0.13 0.19 0.30 0.48 0.48 0.35 0.33 0.40 0.39 0.21 0.08 0.08 0.11 0.15 0.18 0.30 0.59 0.66 0.46 0.35 0.32
0.00 0.01 0.02 0.06 0.09 0.12 0.13 0.17 0.22 0.19 0.17 0.15 0.16 0.16 0.15 0.13 0.14 0.16 0.15 0.13 0.15 0.14 0.13 0.15 0.23 0.43 0.46 0.38 0.39 0.44 0.31 0.12 0.04 0.11 0.10 0.19 0.17 0.38 0.72 0.80 0.67 0.47 0.37
0.00 0.01 0.03 0.05 0.07 0.09 0.10 0.15 0.19 0.18 0.18 0.17 0.16 0.14 0.11 0.11 0.12 0.12 0.11 0.10 0.12 0.15 0.15 0.14 0.16 0.28 0.35 0.35 0.44 0.40 0.18 0.06 0.02 0.07 0.17 0.17 0.15 0.40 0.79 0.89 0.81 0.66 0.51
0.01 0.01 0.03 0.06 0.08 0.08 0.08 0.10 0.14 0.14 0.14 0.14 0.13 0.11 0.11 0.10 0.09 0.09 0.07 0.06 0.09 0.13 0.15 0.17 0.18 0.22 0.27 0.26 0.32 0.26 0.09 0.04 0.04 0.08 0.16 0.15 0.17 0.38 0.75 0.92 0.87 0.79 0.70
0.01 0.01 0.03 0.06 0.08 0.07 0.06 0.07 0.09 0.10 0.10 0.09 0.09 0.10 0.11 0.12 0.12 0.10 0.08 0.07 0.10 0.11 0.14 0.19 0.21 0.21 0.20 0.19 0.31 0.26 0.12 0.09 0.09 0.06 0.09 0.08 0.19 0.39 0.63 0.83 0.93 0.87 0.82
0.00 0.01 0.02 0.05 0.07 0.06 0.05 0.05 0.07 0.08 0.10 0.11 0.11 0.13 0.16 0.18 0.17 0.13 0.11 0.10 0.10 0.10 0.13 0.17 0.21 0.20 0.25 0.39 0.53 0.42 0.28 0.22 0.13 0.07 0.04 0.05 0.14 0.29 0.48 0.66 0.86 0.98 0.97
0.00 0.01 0.02 0.04 0.06 0.05 0.05 0.05 0.05 0.05 0.06 0.07 0.10 0.11 0.13 0.14 0.13 0.11 0.08 0.07 0.08 0.09 0.11 0.15 0.17 0.21 0.24 0.31 0.36 0.33 0.27 0.24 0.17 0.12 0.07 0.06 0.09 0.15 0.29 0.45 0.65 0.91 1.01
0.00 0.01 0.02 0.03 0.04 0.05 0.05 0.04 0.03 0.04 0.04 0.03 0.04 0.04 0.05 0.07 0.08 0.07 0.05 0.04 0.03 0.05 0.07 0.09 0.10 0.12 0.16 0.20 0.20 0.21 0.22 0.21 0.17 0.16 0.14 0.10 0.09 0.11 0.17 0.29 0.42 0.68 0.93
0.00 0.00 0.01 0.02 0.03 0.04 0.04 0.04 0.03 0.03 0.03 0.02 0.03 0.03 0.02 0.03 0.03 0.03 0.02 0.02 0.01 0.02 0.04 0.06 0.06 0.07 0.10 0.14 0.14 0.14 0.15 0.14 0.13 0.14 0.15 0.15 0.12 0.11 0.16 0.23 0.32 0.43 0.69
0.00 0.00 0.01 0.01 0.02 0.03 0.04 0.04 0.03 0.03 0.03 0.03 0.02 0.02 0.01 0.01 0.01 0.02 0.02 0.02 0.01 0.02 0.05 0.10 0.14 0.15 0.15 0.17 0.16 0.18 0.17 0.16 0.15 0.17 0.18 0.18 0.18 0.16 0.17 0.27 0.32 0.36 0.49
0.00 0.00 0.00 0.01 0.01 0.02 0.03 0.03 0.03 0.03 0.03 0.03 0.02 0.02 0.01 0.02 0.03 0.03 0.03 0.02 0.01 0.02 0.05 0.11 0.17 0.20 0.20 0.22 0.22 0.25 0.26 0.26 0.21 0.22 0.24 0.21 0.21 0.20 0.19 0.23 0.32 0.37 0.47
0.00 0.00 0.00 0.00 0.00 0.01 0.02 0.03 0.03 0.03 0.03 0.03 0.03 0.02 0.02 0.02 0.03 0.04 0.04 0.04 0.03 0.04 0.06 0.10 0.13 0.18 0.20 0.24 0.26 0.28 0.33 0.35 0.32 0.28 0.25 0.23 0.23 0.21 0.22 0.24 0.28 0.32 0.42
0.00 0.00 0.00 0.00 0.00 0.01 0.02 0.02 0.03 0.03 0.02 0.02 0.02 0.02 0.03 0.02 0.02 0.02 0.03 0.05 0.06 0.08 0.10 0.11 0.14 0.16 0.19 0.25 0.29 0.29 0.34 0.36 0.35 0.32 0.29 0.30 0.30 0.24 0.23 0.24 0.26 0.27 0.30
0.00 0.00 0.00 0.00 0.00 0.01 0.01 0.02 0.02 0.02 0.02 0.02 0.02 0.02 0.02 0.02 0.02 0.02 0.02 0.03 0.04 0.06 0.09 0.12 0.13 0.13 0.13 0.18 0.22 0.20 0.20 0.23 0.27 0.26 0.25 0.28 0.32 0.35 0.34 0.31 0.29 0.28 0.29
0.00 0.00 0.00 0.00 0.00 0.00 0.00 0.01 0.01 0.01 0.01 0.01 0.02 0.02 0.02 0.02 0.02 0.02 0.02 0.02 0.02 0.03 0.03 0.03 0.05 0.07 0.06 0.08 0.16 0.21 0.17 0.15 0.16 0.17 0.18 0.22 0.28 0.35 0.39 0.40 0.39 0.36 0.33
0.00 0.00 0.00 0.00 0.00 0.00 0.00 0.01 0.01 0.01 0.01 0.01 0.02 0.02 0.02 0.01 0.01 0.01 0.02 0.02 0.02 0.02 0.02 0.02 0.03 0.05 0.05 0.05 0.09 0.25 0.34 0.24 0.16 0.12 0.14 0.16 0.19 0.21 0.24 0.29 0.34 0.38 0.38
0.00 0.00 0.00 0.00 0.00 0.00 0.00 0.00 0.01 0.01 0.01 0.01 0.01 0.01 0.01 0.01 0.01 0.01 0.02 0.02 0.02 0.02 0.03 0.03 0.03 0.04 0.07 0.08 0.07 0.12 0.22 0.27 0.33 0.22 0.07 0.06 0.08 0.10 0.12 0.15 0.19 0.24 0.30
0.00 0.00 0.00 0.00 0.00 0.00 0.00 0.00 0.01 0.01 0.01 0.01 0.00 0.00 0.01 0.01 0.01 0.01 0.02 0.02 0.03 0.03 0.03 0.04 0.04 0.05 0.07 0.10 0.12 0.12 0.11 0.13 0.22 0.36 0.17 0.03 0.03 0.05 0.08 0.11 0.14 0.19 0.24
0.00 0.00 0.00 0.00 0.00 0.00 0.00 0.00 0.01 0.01 0.01 0.00 0.00 0.01 0.01 0.01 0.01 0.01 0.02 0.03 0.04 0.04 0.04 0.05 0.06 0.07 0.08 0.10 0.13 0.15 0.20 0.24 0.22 0.30 0.28 0.12 0.06 0.04 0.06 0.08 0.11 0.16 0.22

GEFSSE_prec_meanprecacc_168.txt.gz
Total_Precipitation_Accumulation
0.05 0.06 0.20 0.22 0.22 0.23 0.23 0.22 0.18 0.16 0.17 0.19 0.21 0.23 0.22 0.22 0.21 0.23 0.25 0.30 0.32 0.27 0.29 0.32 0.30 0.28 0.27 0.27 0.26 0.24 0.19 0.16 0.15 0.18 0.24 0.30 0.29 0.22 0.19 0.18 0.14 0.22 0.30
0.04 0.06 0.14 0.15 0.17 0.20 0.21 0.18 0.14 0.13 0.14 0.14 0.14 0.15 0.16 0.18 0.20 0.21 0.25 0.30 0.34 0.28 0.27 0.30 0.32 0.32 0.31 0.30 0.30 0.28 0.20 0.13 0.11 0.10 0.12 0.16 0.22 0.21 0.18 0.19 0.19 0.32 0.35
0.02 0.04 0.08 0.11 0.14 0.16 0.18 0.15 0.12 0.10 0.10 0.10 0.09 0.10 0.12 0.15 0.18 0.20 0.23 0.24 0.27 0.30 0.30 0.29 0.38 0.40 0.37 0.36 0.34 0.31 0.24 0.13 0.08 0.08 0.08 0.15 0.24 0.27 0.24 0.21 0.21 0.25 0.29
0.01 0.02 0.04 0.09 0.14 0.16 0.17 0.14 0.11 0.11 0.10 0.09 0.08 0.08 0.11 0.14 0.16 0.19 0.24 0.26 0.29 0.38 0.40 0.43 0.50 0.48 0.42 0.38 0.34 0.30 0.28 0.18 0.09 0.07 0.05 0.15 0.30 0.35 0.30 0.26 0.21 0.23 0.26
0.00 0.01 0.03 0.09 0.13 0.15 0.15 0.16 0.14 0.12 0.10 0.09 0.09 0.08 0.10 0.12 0.14 0.16 0.19 0.24 0.30 0.42 0.43 0.41 0.45 0.44 0.40 0.38 0.33 0.34 0.38 0.28 0.13 0.05 0.04 0.11 0.25 0.40 0.35 0.32 0.27 0.23 0.24
0.00 0.01 0.02 0.08 0.13 0.15 0.17 0.20 0.19 0.14 0.11 0.10 0.09 0.09 0.10 0.10 0.11 0.13 0.15 0.16 0.21 0.28 0.31 0.35 0.38 0.39 0.37 0.34 0.30 0.33 0.42 0.37 0.15 0.04 0.05 0.08 0.20 0.37 0.35 0.33 0.30 0.25 0.22
0.00 0.01 0.02 0.08 0.13 0.14 0.16 0.20 0.20 0.14 0.11 0.09 0.10 0.12 0.11 0.10 0.10 0.11 0.10 0.10 0.11 0.15 0.19 0.28 0.36 0.41 0.41 0.34 0.30 0.35 0.43 0.35 0.13 0.10 0.12 0.12 0.18 0.26 0.37 0.38 0.32 0.29 0.26
0.00 0.01 0.02 0.08 0.13 0.14 0.15 0.18 0.23 0.18 0.14 0.12 0.13 0.15 0.14 0.13 0.14 0.15 0.13 0.10 0.10 0.10 0.13 0.19 0.30 0.48 0.48 0.35 0.33 0.40 0.39 0.21 0.08 0.08 0.11 0.15 0.18 0.30 0.59 0.66 0.46 0.35 0.32
0.00 0.01 0.02 0.07 0.10 0.13 0.14 0.18 0.23 0.19 0.17 0.15 0.16 0.16 0.15 0.13 0.14 0.16 0.15 0.13 0.15 0.14 0.13 0.15 0.23 0.43 0.46 0.38 0.39 0.44 0.31 0.12 0.04 0.11 0.10 0.19 0.17 0.38 0.72 0.81 0.67 0.48 0.37
0.00 0.01 0.03 0.06 0.08 0.09 0.11 0.15 0.19 0.19 0.18 0.17 0.16 0.14 0.11 0.11 0.12 0.12 0.11 0.10 0.12 0.16 0.15 0.14 0.16 0.28 0.35 0.35 0.44 0.40 0.18 0.06 0.02 0.07 0.17 0.17 0.15 0.40 0.79 0.89 0.81 0.66 0.52
0.01 0.01 0.03 0.06 0.08 0.08 0.08 0.11 0.14 0.15 0.14 0.14 0.13 0.11 0.11 0.10 0.09 0.09 0.07 0.06 0.09 0.13 0.15 0.17 0.18 0.22 0.27 0.26 0.32 0.26 0.09 0.04 0.04 0.08 0.16 0.15 0.17 0.38 0.75 0.92 0.87 0.79 0.70
0.01 0.01 0.03 0.06 0.08 0.07 0.06 0.07 0.09 0.10 0.10 0.09 0.09 0.10 0.11 0.12 0.12 0.10 0.08 0.07 0.10 0.11 0.14 0.19 0.22 0.21 0.20 0.19 0.31 0.26 0.12 0.09 0.09 0.06 0.09 0.08 0.19 0.39 0.63 0.83 0.93 0.87 0.82
0.00 0.01 0.03 0.05 0.07 0.06 0.05 0.06 0.07 0.08 0.10 0.11 0.11 0.13 0.16 0.18 0.17 0.14 0.11 0.10 0.10 0.10 0.13 0.17 0.21 0.20 0.25 0.39 0.53 0.42 0.28 0.22 0.13 0.07 0.04 0.05 0.14 0.29 0.49 0.66 0.86 0.98 0.97
0.00 0.01 0.02 0.04 0.06 0.05 0.05 0.05 0.05 0.05 0.06 0.07 0.10 0.11 0.13 0.14 0.13 0.11 0.08 0.07 0.08 0.09 0.11 0.15 0.17 0.21 0.24 0.31 0.36 0.33 0.27 0.24 0.17 0.12 0.07 0.06 0.09 0.15 0.29 0.45 0.65 0.91 1.01
0.00 0.01 0.02 0.03 0.04 0.05 0.05 0.04 0.03 0.04 0.04 0.03 0.04 0.04 0.05 0.07 0.08 0.07 0.05 0.04 0.03 0.05 0.07 0.09 0.10 0.12 0.16 0.20 0.20 0.21 0.22 0.21 0.17 0.16 0.14 0.10 0.09 0.11 0.17 0.29 0.43 0.68 0.93
0.01 0.00 0.01 0.02 0.03 0.04 0.04 0.04 0.03 0.03 0.03 0.02 0.03 0.03 0.02 0.03 0.03 0.03 0.02 0.02 0.01 0.02 0.04 0.06 0.06 0.07 0.10 0.14 0.14 0.14 0.15 0.14 0.13 0.14 0.15 0.15 0.12 0.11 0.16 0.23 0.32 0.43 0.69
0.01 0.00 0.01 0.01 0.02 0.03 0.04 0.04 0.03 0.03 0.03 0.03 0.02 0.02 0.01 0.01 0.01 0.02 0.02 0.02 0.01 0.02 0.05 0.10 0.14 0.15 0.15 0.17 0.16 0.18 0.17 0.16 0.15 0.17 0.18 0.18 0.18 0.16 0.17 0.27 0.32 0.36 0.49
0.00 0.01 0.01 0.01 0.01 0.02 0.03 0.03 0.03 0.03 0.03 0.03 0.02 0.02 0.01 0.02 0.03 0.03 0.03 0.02 0.01 0.02 0.05 0.11 0.17 0.20 0.20 0.22 0.22 0.25 0.26 0.26 0.21 0.22 0.24 0.21 0.21 0.20 0.19 0.23 0.32 0.37 0.47
0.01 0.01 0.01 0.01 0.01 0.01 0.02 0.03 0.03 0.03 0.03 0.03 0.03 0.02 0.02 0.02 0.03 0.04 0.04 0.04 0.03 0.04 0.06 0.10 0.13 0.18 0.20 0.24 0.26 0.28 0.33 0.35 0.32 0.28 0.25 0.23 0.23 0.21 0.22 0.24 0.28 0.32 0.42
0.01 0.01 0.01 0.01 0.01 0.01 0.02 0.02 0.03 0.03 0.02 0.02 0.02 0.02 0.03 0.02 0.02 0.02 0.03 0.05 0.06 0.08 0.10 0.11 0.14 0.16 0.19 0.25 0.29 0.29 0.34 0.36 0.35 0.32 0.29 0.30 0.30 0.24 0.23 0.24 0.26 0.27 0.30
0.01 0.01 0.01 0.01 0.01 0.01 0.01 0.02 0.02 0.02 0.02 0.02 0.02 0.02 0.02 0.02 0.02 0.02 0.02 0.03 0.04 0.06 0.09 0.12 0.13 0.13 0.13 0.18 0.22 0.20 0.20 0.23 0.27 0.26 0.25 0.28 0.32 0.35 0.34 0.31 0.29 0.28 0.29
0.01 0.01 0.01 0.01 0.00 0.00 0.00 0.01 0.01 0.01 0.01 0.01 0.02 0.02 0.02 0.02 0.02 0.02 0.02 0.02 0.02 0.03 0.03 0.03 0.05 0.07 0.06 0.08 0.16 0.21 0.17 0.16 0.16 0.17 0.18 0.22 0.28 0.35 0.39 0.40 0.39 0.36 0.33
0.00 0.00 0.01 0.01 0.00 0.00 0.00 0.01 0.01 0.01 0.01 0.01 0.02 0.02 0.02 0.02 0.02 0.02 0.02 0.02 0.02 0.02 0.03 0.02 0.03 0.05 0.06 0.05 0.09 0.25 0.35 0.25 0.16 0.12 0.14 0.16 0.19 0.21 0.24 0.29 0.34 0.38 0.38
0.00 0.00 0.01 0.01 0.01 0.00 0.01 0.01 0.01 0.01 0.01 0.01 0.01 0.01 0.01 0.01 0.01 0.01 0.02 0.02 0.02 0.03 0.03 0.03 0.03 0.05 0.07 0.08 0.07 0.12 0.23 0.28 0.34 0.22 0.07 0.06 0.08 0.10 0.12 0.15 0.19 0.24 0.30
0.00 0.00 0.00 0.01 0.01 0.01 0.00 0.00 0.01 0.01 0.01 0.01 0.00 0.00 0.01 0.01 0.01 0.02 0.02 0.02 0.03 0.03 0.03 0.04 0.04 0.05 0.07 0.10 0.12 0.13 0.12 0.13 0.22 0.37 0.18 0.03 0.03 0.05 0.08 0.11 0.14 0.19 0.24
0.00 0.00 0.01 0.01 0.01 0.01 0.01 0.00 0.01 0.01 0.01 0.01 0.01 0.01 0.01 0.01 0.01 0.01 0.02 0.03 0.04 0.04 0.04 0.05 0.07 0.08 0.09 0.11 0.13 0.15 0.20 0.24 0.23 0.31 0.29 0.12 0.06 0.04 0.06 0.08 0.11 0.16 0.22

GEFSSE_prec_meanprecacc_174.txt.gz
Total_Precipitation_Accumulation
0.05 0.06 0.21 0.24 0.25 0.25 0.24 0.24 0.20 0.17 0.18 0.20 0.22 0.24 0.22 0.22 0.22 0.24 0.26 0.30 0.32 0.28 0.30 0.33 0.31 0.29 0.29 0.28 0.28 0.26 0.21 0.17 0.17 0.19 0.25 0.31 0.30 0.24 0.21 0.20 0.16 0.23 0.32
0.04 0.06 0.15 0.17 0.20 0.22 0.22 0.19 0.16 0.13 0.14 0.15 0.14 0.15 0.16 0.18 0.20 0.21 0.25 0.30 0.34 0.29 0.29 0.31 0.32 0.33 0.31 0.30 0.30 0.28 0.20 0.14 0.11 0.10 0.12 0.17 0.23 0.22 0.19 0.20 0.20 0.33 0.36
0.02 0.04 0.09 0.13 0.16 0.19 0.19 0.16 0.13 0.11 0.11 0.10 0.09 0.10 0.13 0.16 0.19 0.20 0.23 0.25 0.28 0.31 0.30 0.29 0.38 0.40 0.37 0.36 0.34 0.31 0.24 0.13 0.08 0.08 0.08 0.16 0.24 0.28 0.24 0.22 0.21 0.26 0.30
0.01 0.02 0.04 0.11 0.15 0.18 0.18 0.15 0.12 0.11 0.10 0.09 0.08 0.09 0.11 0.14 0.16 0.19 0.24 0.26 0.29 0.38 0.41 0.43 0.50 0.48 0.42 0.38 0.35 0.30 0.28 0.18 0.09 0.07 0.05 0.15 0.30 0.35 0.31 0.27 0.22 0.24 0.27
0.00 0.01 0.03 0.09 0.14 0.16 0.16 0.16 0.15 0.12 0.10 0.09 0.09 0.08 0.10 0.12 0.14 0.17 0.20 0.24 0.30 0.42 0.43 0.42 0.45 0.44 0.40 0.38 0.33 0.34 0.38 0.28 0.13 0.05 0.04 0.11 0.25 0.40 0.35 0.32 0.27 0.23 0.24
0.00 0.01 0.03 0.09 0.14 0.15 0.17 0.21 0.20 0.14 0.11 0.10 0.09 0.09 0.10 0.11 0.11 0.13 0.15 0.16 0.21 0.28 0.31 0.35 0.38 0.39 0.37 0.35 0.30 0.33 0.42 0.37 0.15 0.04 0.05 0.08 0.20 0.37 0.36 0.34 0.30 0.25 0.22
0.00 0.01 0.02 0.09 0.14 0.15 0.17 0.20 0.21 0.15 0.11 0.10 0.11 0.12 0.12 0.10 0.10 0.11 0.10 0.11 0.11 0.15 0.19 0.28 0.36 0.41 0.41 0.34 0.30 0.35 0.43 0.35 0.13 0.10 0.12 0.12 0.18 0.26 0.38 0.38 0.32 0.29 0.26
0.00 0.01 0.02 0.09 0.14 0.15 0.16 0.19 0.24 0.18 0.14 0.12 0.13 0.15 0.15 0.13 0.14 0.15 0.13 0.10 0.10 0.10 0.13 0.19 0.30 0.48 0.48 0.35 0.33 0.40 0.39 0.21 0.08 0.08 0.11 0.15 0.18 0.30 0.59 0.66 0.46 0.35 0.32
0.00 0.01 0.03 0.07 0.11 0.13 0.15 0.18 0.23 0.20 0.17 0.16 0.16 0.17 0.15 0.13 0.14 0.16 0.15 0.13 0.15 0.14 0.13 0.15 0.23 0.43 0.46 0.38 0.39 0.44 0.31 0.12 0.04 0.11 0.10 0.19 0.17 0.38 0.72 0.81 0.67 0.48 0.37
0.00 0.01 0.03 0.06 0.08 0.10 0.11 0.16 0.20 0.19 0.18 0.17 0.16 0.14 0.11 0.11 0.12 0.12 0.11 0.10 0.12 0.16 0.15 0.14 0.16 0.28 0.35 0.36 0.44 0.40 0.18 0.06 0.02 0.07 0.17 0.17 0.15 0.40 0.79 0.89 0.81 0.66 0.52
0.01 0.01 0.03 0.07 0.08 0.09 0.09 0.11 0.15 0.15 0.15 0.15 0.14 0.11 0.11 0.10 0.09 0.09 0.07 0.06 0.09 0.13 0.15 0.17 0.18 0.22 0.27 0.26 0.32 0.26 0.09 0.04 0.04 0.08 0.16 0.15 0.17 0.38 0.75 0.92 0.87 0.79 0.70
0.01 0.01 0.03 0.06 0.08 0.07 0.06 0.07 0.10 0.10 0.10 0.09 0.09 0.10 0.11 0.12 0.12 0.10 0.08 0.07 0.10 0.11 0.14 0.19 0.22 0.21 0.20 0.19 0.31 0.26 0.12 0.09 0.09 0.06 0.09 0.08 0.19 0.39 0.63 0.83 0.93 0.87 0.82
0.01 0.01 0.03 0.05 0.07 0.06 0.05 0.06 0.08 0.08 0.10 0.11 0.11 0.13 0.16 0.18 0.17 0.14 0.11 0.10 0.10 0.10 0.13 0.17 0.21 0.20 0.25 0.39 0.53 0.42 0.28 0.22 0.13 0.07 0.04 0.05 0.14 0.29 0.49 0.66 0.86 0.98 0.97
0.01 0.01 0.03 0.05 0.06 0.06 0.05 0.05 0.05 0.05 0.06 0.07 0.10 0.11 0.13 0.14 0.13 0.11 0.08 0.07 0.08 0.09 0.11 0.15 0.17 0.21 0.24 0.31 0.36 0.33 0.27 0.24 0.17 0.12 0.07 0.06 0.09 0.16 0.29 0.45 0.65 0.91 1.01
0.01 0.01 0.02 0.03 0.04 0.05 0.05 0.05 0.04 0.04 0.04 0.03 0.04 0.04 0.05 0.07 0.08 0.07 0.05 0.04 0.03 0.05 0.07 0.09 0.10 0.12 0.16 0.20 0.20 0.21 0.22 0.21 0.17 0.16 0.14 0.10 0.09 0.11 0.17 0.29 0.43 0.68 0.93
0.01 0.01 0.01 0.02 0.03 0.04 0.04 0.04 0.03 0.03 0.03 0.03 0.03 0.03 0.02 0.03 0.03 0.03 0.02 0.02 0.01 0.02 0.04 0.06 0.06 0.07 0.10 0.14 0.14 0.14 0.15 0.14 0.13 0.14 0.15 0.15 0.12 0.11 0.16 0.24 0.32 0.43 0.69
0.02 0.01 0.01 0.02 0.02 0.03 0.04 0.04 0.03 0.03 0.03 0.03 0.02 0.02 0.01 0.01 0.01 0.02 0.02 0.02 0.01 0.02 0.05 0.10 0.14 0.15 0.15 0.17 0.16 0.18 0.17 0.16 0.15 0.17 0.18 0.18 0.18 0.16 0.18 0.27 0.32 0.36 0.49
0.02 0.02 0.02 0.01 0.01 0.02 0.03 0.03 0.03 0.03 0.03 0.03 0.02 0.02 0.01 0.02 0.03 0.03 0.03 0.02 0.01 0.02 0.05 0.11 0.17 0.20 0.20 0.22 0.22 0.25 0.26 0.26 0.21 0.22 0.24 0.21 0.21 0.20 0.19 0.23 0.32 0.37 0.47
0.02 0.02 0.02 0.01 0.01 0.01 0.02 0.03 0.03 0.03 0.03 0.03 0.03 0.02 0.02 0.02 0.03 0.04 0.04 0.04 0.03 0.04 0.06 0.10 0.13 0.18 0.20 0.24 0.26 0.28 0.33 0.35 0.32 0.28 0.25 0.23 0.23 0.21 0.22 0.24 0.28 0.32 0.42
0.03 0.03 0.02 0.02 0.01 0.01 0.02 0.03 0.03 0.03 0.03 0.02 0.02 0.02 0.03 0.02 0.02 0.02 0.03 0.05 0.06 0.08 0.10 0.11 0.14 0.16 0.19 0.25 0.29 0.29 0.34 0.36 0.35 0.32 0.29 0.30 0.30 0.24 0.23 0.24 0.26 0.27 0.30
0.03 0.04 0.03 0.02 0.02 0.02 0.02 0.02 0.02 0.02 0.02 0.02 0.02 0.02 0.02 0.02 0.02 0.02 0.02 0.03 0.04 0.06 0.09 0.12 0.13 0.13 0.13 0.18 0.22 0.20 0.20 0.23 0.27 0.26 0.25 0.28 0.32 0.35 0.34 0.31 0.29 0.28 0.29
0.02 0.04 0.04 0.03 0.02 0.01 0.01 0.01 0.01 0.01 0.01 0.01 0.02 0.02 0.02 0.02 0.02 0.02 0.02 0.03 0.03 0.03 0.03 0.03 0.05 0.07 0.06 0.08 0.16 0.21 0.18 0.16 0.16 0.17 0.18 0.22 0.28 0.35 0.39 0.40 0.39 0.36 0.33
0.01 0.02 0.04 0.03 0.02 0.01 0.01 0.01 0.01 0.01 0.01 0.01 0.02 0.02 0.02 0.02 0.02 0.02 0.02 0.02 0.02 0.03 0.03 0.03 0.03 0.05 0.06 0.05 0.10 0.26 0.35 0.25 0.16 0.12 0.14 0.16 0.19 0.21 0.24 0.29 0.34 0.38 0.38
0.00 0.01 0.03 0.05 0.03 0.02 0.02 0.01 0.01 0.01 0.01 0.01 0.01 0.01 0.01 0.01 0.01 0.02 0.02 0.02 0.02 0.03 0.03 0.04 0.04 0.05 0.08 0.08 0.07 0.12 0.23 0.28 0.35 0.22 0.07 0.06 0.08 0.10 0.12 0.15 0.19 0.24 0.30
0.00 0.01 0.02 0.05 0.04 0.02 0.02 0.01 0.01 0.01 0.01 0.01 0.00 0.00 0.01 0.01 0.01 0.02 0.02 0.02 0.03 0.03 0.04 0.04 0.05 0.06 0.08 0.11 0.13 0.13 0.12 0.13 0.23 0.38 0.18 0.04 0.03 0.05 0.08 0.11 0.14 0.19 0.24
0.00 0.00 0.01 0.03 0.05 0.03 0.02 0.02 0.01 0.01 0.01 0.01 0.01 0.01 0.01 0.01 0.01 0.01 0.02 0.03 0.04 0.04 0.04 0.06 0.07 0.08 0.09 0.11 0.14 0.16 0.21 0.25 0.23 0.32 0.30 0.12 0.07 0.04 0.06 0.08 0.11 0.16 0.22